DW3693 Weather Reports


Display with metric or nautical units.
time (UTC)temp
F
wind
direction
speed
MPH
gust
MPH
rain 1hr
in
rain 24hr
in
rain mn
in
humidity
%
barometer
mb
20260906140518 54 0.0 0.0 0.01 0.05 0.04 94 1015.3
20260906135518 54 0.0 0.0 0.01 0.05 0.04 94 1015.4
20260906134515 54 0.0 0.0 0.00 0.04 0.03 94 1015.2
20260906133518 54 0.0 0.0 0.00 0.04 0.03 94 1015.1
20260906132515 54 0.0 0.0 0.00 0.04 0.03 94 1015.1
20260906131536 54 0.0 0.0 0.00 0.04 0.03 94 1015.1
20260906130515 53 0.0 0.0 0.00 0.04 0.03 94 1015.1
20260906125601 53 0.0 0.0 0.00 0.04 0.03 94 1015.1
20260906124518 54 0.0 0.0 0.00 0.04 0.03 94 1015.0
20260906123515 54 0.0 0.0 0.00 0.04 0.03 94 1015.2
20260906122516 54 0.0 0.0 0.00 0.04 0.03 94 1015.1
20260906121516 54 0.0 0.0 0.00 0.04 0.03 94 1015.1
20260906120515 54 0.0 0.0 0.00 0.04 0.03 94 1015.2
20260906115515 54 0.0 0.0 0.00 0.04 0.03 93 1015.3
20260906114516 54 0.0 1.0 0.00 0.04 0.03 93 1015.4
20260906113517 54 0.0 0.0 0.00 0.04 0.03 93 1015.5
20260906112518 54 0.0 0.0 0.00 0.04 0.03 93 1015.4
20260906111518 54 0.0 0.0 0.00 0.04 0.03 93 1015.4
20260906110517 54 0.0 0.0 0.01 0.04 0.03 93 1015.4
20260906105517 54 0.0 0.0 0.01 0.04 0.03 93 1015.5
20260906104516 54 0.0 0.0 0.02 0.04 0.03 93 1015.7
20260906103519 54 0.0 0.0 0.02 0.04 0.03 93 1015.9
20260906102537 54 0.0 0.0 0.03 0.04 0.03 93 1015.9
20260906101517 54 0.0 2.0 0.03 0.04 0.03 93 1016.0
20260906100547 54 0.0 0.0 0.02 0.03 0.02 92 1015.8
20260906095517 54 0.0 0.0 0.02 0.03 0.02 92 1015.8
20260906094522 54 0.0 0.0 0.01 0.02 0.01 92 1016.0
20260906093517 54 0.0 0.0 0.01 0.02 0.01 92 1015.9
20260906092517 54 0.0 0.0 0.00 0.01 0.00 92 1015.9
20260906091522 54 0.0 0.0 0.00 0.01 0.00 91 1015.7
20260906090548 54 0.0 0.0 0.00 0.01 0.00 91 1015.6
20260906085517 54 0.0 0.0 0.00 0.01 0.00 91 1015.7
20260906084516 54 0.0 0.0 0.00 0.01 0.00 91 1015.6
20260906083517 54 0.0 0.0 0.00 0.01 0.00 91 1015.7
20260906082517 54 0.0 0.0 0.00 0.01 0.00 91 1015.7
20260906081535 54 0.0 0.0 0.00 0.01 0.00 91 1015.7
20260906080516 54 0.0 0.0 0.00 0.01 0.00 91 1015.6
20260906075518 54 0.0 0.0 0.00 0.01 0.00 90 1015.6
20260906074517 54 0.0 0.0 0.00 0.01 0.00 90 1015.5
20260906073516 53 0.0 0.0 0.00 0.01 0.00 90 1015.4
20260906072517 54 0.0 0.0 0.00 0.01 0.00 90 1015.6
20260906071516 54 0.0 0.0 0.00 0.01 0.00 90 1015.5
20260906070546 53 0.0 0.0 0.00 0.01 0.00 90 1015.8
20260906065516 53 0.0 0.0 0.00 0.01 0.01 90 1015.6
20260906064522 53 0.0 0.0 0.00 0.01 0.01 90 1015.8
20260906063541 53 0.0 0.0 0.00 0.01 0.01 89 1015.8
20260906062516 53 0.0 0.0 0.00 0.01 0.01 89 1015.9
20260906061517 54 0.0 0.0 0.00 0.01 0.01 88 1015.8
20260906060517 54 0.0 0.0 0.00 0.01 0.01 88 1015.7
20260906055517 55 0.0 0.0 0.00 0.01 0.01 88 1015.8
20260906054516 55 0.0 0.0 0.00 0.01 0.01 87 1015.9
20260906053516 55 0.0 0.0 0.00 0.01 0.01 87 1015.9
20260906052516 55 0.0 0.0 0.00 0.01 0.01 87 1015.9
20260906051703 55 0.0 0.0 0.00 0.01 0.01 87 1015.9
20260906050531 55 0.0 0.0 0.00 0.01 0.01 87 1015.8
20260906045521 55 0.0 0.0 0.00 0.01 0.01 87 1015.9
20260906044706 55 0.0 0.0 0.00 0.01 0.01 88 1016.0
20260906043523 55 0.0 0.0 0.00 0.01 0.01 87 1016.0
20260906042516 55 0.0 0.0 0.00 0.01 0.01 87 1015.9
20260906041547 55 0.0 0.0 0.00 0.01 0.01 86 1016.0
20260906040607 56 0.0 0.0 0.00 0.01 0.01 85 1015.9
20260906034621 56 0.0 0.0 0.00 0.01 0.01 85 1015.6
20260906033519 57 0.0 0.0 0.00 0.01 0.01 83 1015.6
20260906032521 57 0.0 0.0 0.00 0.01 0.01 84 1015.5
20260906031521 57 0.0 0.0 0.00 0.01 0.01 84 1015.3
20260906030522 57 0.0 0.0 0.00 0.01 0.01 83 1015.2
20260906025517 58 0.0 1.0 0.00 0.01 0.01 82 1015.1
20260906024608 59 0.0 0.0 0.00 0.01 0.01 82 1015.1
20260906023516 60 0.0 0.0 0.00 0.01 0.01 80 1015.1
20260906022516 61 0.0 0.0 0.00 0.01 0.01 80 1015.1
20260906021522 61 0.0 1.0 0.00 0.01 0.01 79 1015.2
20260906020515 62 270 1.0 2.0 0.00 0.01 0.01 75 1015.1
20260906015536 63 0.0 1.0 0.00 0.01 0.01 72 1015.2
20260906014515 64 0.0 0.0 0.00 0.01 0.01 70 1015.2
20260906013515 65 0.0 1.0 0.00 0.01 0.01 71 1015.3
20260906012521 66 0.0 1.0 0.00 0.01 0.01 67 1015.3
20260906011521 66 158 1.0 2.0 0.00 0.01 0.01 65 1015.5
20260906010521 66 158 1.0 2.0 0.00 0.01 0.01 67 1015.4
20260906005521 67 158 1.0 3.0 0.00 0.01 0.01 65 1015.6
20260906004515 68 23 1.0 2.0 0.00 0.01 0.01 64 1015.8
20260906003521 67 293 1.0 2.0 0.00 0.01 0.01 68 1015.6
20260906001522 66 180 2.0 6.0 0.00 0.01 0.01 70 1015.9
20260906000515 65 158 1.0 4.0 0.00 0.01 0.01 71 1015.9
20260905235523 65 180 2.0 5.0 0.00 0.01 0.01 69 1015.8
20260905234517 66 158 2.0 4.0 0.00 0.01 0.01 66 1015.8
20260905233526 67 0.0 0.0 0.00 0.01 0.01 60 1015.7
20260905231548 68 0.0 0.0 0.00 0.01 0.01 59 1015.7
20260905230519 67 0.0 0.0 0.00 0.01 0.01 60 1015.7
20260905224517 67 0 1.0 4.0 0.00 0.01 0.01 60 1015.7
20260905223547 68 315 1.0 4.0 0.00 0.01 0.01 59 1015.7
20260905222548 68 0 1.0 2.0 0.00 0.01 0.01 60 1015.8
20260905221539 69 0.0 1.0 0.00 0.01 0.01 55 1015.8
20260905220523 68 0.0 2.0 0.00 0.01 0.01 61 1015.8
20260905215520 68 23 1.0 2.0 0.00 0.01 0.01 59 1015.8
20260905214553 68 0.0 1.0 0.00 0.01 0.01 60 1015.8
20260905213517 68 0 1.0 2.0 0.00 0.01 0.01 55 1015.9
20260905212546 69 0 1.0 2.0 0.00 0.01 0.01 54 1016.1
20260905211531 68 0.0 0.0 0.00 0.01 0.01 57 1016.0
20260905210518 69 180 2.0 3.0 0.00 0.01 0.01 56 1016.2
20260905205517 69 90 1.0 2.0 0.00 0.01 0.01 56 1016.3
20260905204607 68 158 1.0 3.0 0.00 0.01 0.01 57 1016.3
20260905203523 67 158 1.0 3.0 0.00 0.01 0.01 58 1016.3
20260905202516 67 45 2.0 5.0 0.00 0.01 0.01 56 1016.3
20260905201522 69 23 2.0 5.0 0.00 0.01 0.01 57 1016.3
20260905200517 67 0.0 4.0 0.00 0.01 0.01 62 1016.4
20260905195517 67 68 1.0 6.0 0.00 0.01 0.01 60 1016.6
20260905194517 67 23 2.0 5.0 0.00 0.01 0.01 63 1016.7
20260905193523 66 90 2.0 5.0 0.00 0.01 0.01 62 1016.8
20260905192547 67 68 2.0 6.0 0.00 0.01 0.01 63 1016.9
20260905191516 66 45 2.0 6.0 0.00 0.01 0.01 63 1016.9
20260905190517 65 68 2.0 5.0 0.00 0.01 0.01 65 1017.0
20260905185517 65 45 2.0 5.0 0.00 0.01 0.01 66 1017.2
20260905184516 64 0 2.0 5.0 0.00 0.01 0.01 68 1017.4
20260905183523 63 45 2.0 5.0 0.00 0.01 0.01 70 1017.5
20260905182610 62 338 1.0 2.0 0.00 0.01 0.01 74 1017.6
20260905181516 62 338 2.0 4.0 0.00 0.01 0.01 77 1017.6
20260905180536 60 158 1.0 4.0 0.00 0.01 0.01 80 1017.7
20260905175516 58 113 1.0 2.0 0.00 0.01 0.01 84 1017.7
20260905174521 58 90 1.0 3.0 0.00 0.01 0.01 84 1017.7
20260905173516 57 0.0 2.0 0.00 0.01 0.01 84 1017.7
20260905172516 58 68 1.0 2.0 0.00 0.01 0.01 85 1017.7
20260905171522 57 0.0 0.0 0.00 0.01 0.01 85 1017.7
20260905170516 57 0.0 0.0 0.00 0.01 0.01 86 1017.6
20260905165516 57 0.0 0.0 0.00 0.01 0.01 84 1017.6
20260905164516 57 0.0 0.0 0.00 0.01 0.01 85 1017.6
20260905163521 57 0.0 0.0 0.00 0.01 0.01 86 1017.7
20260905162536 56 0.0 0.0 0.00 0.01 0.01 87 1017.6
20260905161516 56 0.0 0.0 0.00 0.01 0.01 88 1017.6
20260905160516 56 0.0 0.0 0.00 0.01 0.01 91 1017.6
20260905155516 55 0.0 0.0 0.00 0.01 0.01 91 1017.6
20260905154517 55 0.0 0.0 0.00 0.01 0.01 92 1017.6
20260905153516 55 0.0 0.0 0.00 0.01 0.01 93 1017.6
20260905152516 54 0.0 1.0 0.01 0.01 0.01 93 1017.6
20260905151515 54 0.0 0.0 0.01 0.01 0.01 93 1017.7
20260905150521 53 0.0 0.0 0.01 0.01 0.01 94 1017.6
20260905145639 53 0.0 0.0 0.01 0.01 0.01 94 1017.6
20260905145016 53 0.0 0.0 0.01 0.01 0.01 94 1017.5
20260905144036 52 0.0 0.0 0.01 0.01 0.01 94 1017.4
20260905143016 52 0.0 0.0 0.01 0.01 0.01 94 1017.6
20260905142049 52 0.0 0.0 0.00 0.00 0.00 94 1017.4